{"data":{"norad_id":60402,"intl_designator":"2024-141E","name":"STARLINK-11139 [DTC]","alt_names":[],"object_type":"PAYLOAD","status":"ACTIVE","operator":null,"country":"US","launch_date":"2024-08-10","launch_site_code":"AFETR","launch_vehicle":null,"mission":null,"orbit_class":"UNKNOWN","rcs_meters":null,"size_class":null,"mass_kg":null,"dimensions":null,"purposes":["comms"],"wikipedia_slug":null,"has_3d_model":false,"image_url":null,"decayed_at":null,"tle_current":{"epoch":"2026-09-21T10:47:18.714624Z","epoch_age_seconds":103559,"freshness":"FRESH","line1":"1 60402U 24141E   26264.44952216  .00000633  00000+0  10086-4 0  9997","line2":"2 60402  53.1624 200.9164 0001274  55.2078 304.9060 15.69717140122499","mean_motion":15.6971714,"eccentricity":0.0001274,"inclination_deg":53.1624,"raan_deg":200.9164,"arg_perigee_deg":55.2078,"mean_anomaly_deg":304.906,"bstar":1.0086e-5,"rev_number":12249,"period_min":91.736272944054,"perigee_km":358.84791731149,"apogee_km":360.56471978906,"semimajor_km":6737.8433185503,"source":"CELESTRAK","updated_at":"2026-09-22T09:00:49.229501Z"}}}